TimeEDT,TemperatureF,Dew PointF,Humidity,Sea Level PressureIn,VisibilityMPH,Wind Direction,Wind SpeedMPH,Gust SpeedMPH,PrecipitationIn,Events,Conditions,WindDirDegrees,DateUTC
12:54 AM,43.0,35.1,74,30.34,10.0,North,6.9,-,N/A,,Clear,350,2011-11-02 04:54:00
1:54 AM,42.1,34.0,73,30.34,10.0,NNW,5.8,-,N/A,,Clear,340,2011-11-02 05:54:00
2:54 AM,39.9,33.1,77,30.34,10.0,NNW,6.9,-,N/A,,Clear,330,2011-11-02 06:54:00
3:54 AM,39.0,32.0,76,30.35,10.0,NNW,6.9,-,N/A,,Clear,330,2011-11-02 07:54:00
4:54 AM,39.0,33.1,79,30.38,10.0,NNW,8.1,-,N/A,,Clear,330,2011-11-02 08:54:00
5:54 AM,39.0,32.0,76,30.39,10.0,NNW,5.8,-,N/A,,Clear,340,2011-11-02 09:54:00
6:54 AM,39.0,33.1,79,30.39,10.0,NNW,6.9,-,N/A,,Partly Cloudy,330,2011-11-02 10:54:00
7:54 AM,39.9,33.1,77,30.40,10.0,NNW,9.2,-,N/A,,Partly Cloudy,330,2011-11-02 11:54:00
8:54 AM,43.0,34.0,71,30.40,10.0,NNW,5.8,-,N/A,,Partly Cloudy,340,2011-11-02 12:54:00
9:54 AM,46.9,36.0,66,30.40,10.0,NNW,5.8,-,N/A,,Partly Cloudy,330,2011-11-02 13:54:00
10:54 AM,51.1,39.0,63,30.39,10.0,NW,4.6,-,N/A,,Partly Cloudy,310,2011-11-02 14:54:00
11:54 AM,53.1,39.0,59,30.38,10.0,Variable,4.6,-,N/A,,Partly Cloudy,0,2011-11-02 15:54:00
12:54 PM,52.0,39.0,61,30.35,10.0,SSE,6.9,-,N/A,,Clear,150,2011-11-02 16:54:00
1:54 PM,53.1,39.0,59,30.33,10.0,SE,8.1,-,N/A,,Scattered Clouds,140,2011-11-02 17:54:00
2:54 PM,53.1,39.9,61,30.32,10.0,SE,6.9,-,N/A,,Partly Cloudy,130,2011-11-02 18:54:00
3:54 PM,53.1,39.9,61,30.30,10.0,SE,8.1,-,N/A,,Scattered Clouds,130,2011-11-02 19:54:00
4:54 PM,51.1,37.9,61,30.30,10.0,SE,6.9,-,N/A,,Scattered Clouds,130,2011-11-02 20:54:00
5:54 PM,50.0,39.9,68,30.30,10.0,SE,6.9,-,N/A,,Partly Cloudy,130,2011-11-02 21:54:00
6:54 PM,50.0,41.0,71,30.30,10.0,SSE,8.1,-,N/A,,Partly Cloudy,150,2011-11-02 22:54:00
7:54 PM,48.0,39.9,74,30.30,10.0,South,8.1,-,N/A,,Partly Cloudy,170,2011-11-02 23:54:00
8:54 PM,46.0,37.9,73,30.29,10.0,South,5.8,-,N/A,,Partly Cloudy,180,2011-11-03 00:54:00
9:54 PM,46.0,39.0,76,30.27,10.0,South,4.6,-,N/A,,Partly Cloudy,180,2011-11-03 01:54:00
10:54 PM,45.0,39.0,80,30.25,10.0,South,6.9,-,N/A,,Partly Cloudy,180,2011-11-03 02:54:00
11:54 PM,45.0,39.0,80,30.23,10.0,SSW,5.8,-,N/A,,Partly Cloudy,210,2011-11-03 03:54:00